Flag for Germany Weather past 2 weeks in Beckum, North Rhine-Westphalia, Germany

Now
57 °F

Scattered clouds.


Feels Like: 56 °F
Forecast: 46 / 56 °F
Wind: 6 mph from North

Location: Dortmund / Wickede

Current Time: May 25, 2015 at 4:17:18 PM

Latest Report: May 25, 2015 at 3:50 PM


Visibility: N/A

Pressure: 29.95 "Hg

Humidity: 72%

Dew point: 48 °F

Location of BeckumLocation

Historic Weather in Beckum — Graph

°F

Beckum temperature yesterday

Maximum temperature yesterday: 66 °F (at 3:50 PM)
Minimum temperature yesterday: 45 °F (at 5:20 AM)
Average temperature yesterday: 58 °F

Past Weeks' High & Low Weather Summary

 TemperatureHumidityPressure
High77 °F (May 11, 3:50 PM)94% (May 25, 11:50 AM)30.33 "Hg (May 25, 11:50 AM)
Low39 °F (May 14, 5:20 AM)29% (May 11, 2:50 PM)29.62 "Hg (May 18, 7:20 PM)
Average57 °F58%30.05 "Hg
* Reported May 10 3:20 PM — May 25 3:20 PM, Beckum, Weather by CustomWeather, © 2015

Note: Actual official high and low records may vary slightly from our data, if they occured in-between our weather recording intervals... More about our weather records

Advertising

Beckum weather history for previous 24 hours

 ConditionsComfort  
Time TempWeatherWind HumidityBarometerVisibility
3:20 PM
Mon, May 25
57 °FScattered clouds.2 mph72%29.95 "HgN/A
2:50 PM54 °FPartly sunny.3 mph77%29.98 "HgN/A
2:20 PM52 °FPartly sunny.3 mph82%29.98 "HgN/A
1:50 PM52 °FPartly sunny.2 mph82%29.98 "Hg6 mi
1:20 PM52 °FFog.5 mph88%29.98 "Hg3 mi
12:50 PM50 °FFog.7 mph94%29.98 "Hg2 mi
12:20 PM50 °FFog.7 mph94%29.98 "Hg1 mi
11:50 AM52 °FDrizzle. Fog.6 mph94%29.98 "Hg1 mi
11:20 AM52 °FDrizzle. Fog.7 mph88%29.98 "Hg1 mi
10:50 AM52 °FDrizzle. Fog.3 mph88%29.98 "Hg1 mi
10:20 AM52 °FFog.6 mph88%29.98 "Hg2 mi
9:50 AM52 °FPartly sunny.3 mph88%29.98 "Hg4 mi
9:20 AM50 °FDrizzle. Broken clouds.3 mph88%29.98 "Hg5 mi
8:50 AM50 °FLight rain. Overcast.6 mph82%29.98 "Hg6 mi
8:20 AM50 °FLight rain. Overcast.5 mph88%29.98 "Hg6 mi
7:50 AM50 °FScattered showers. Partly sunny.6 mph88%29.98 "Hg6 mi
7:20 AM50 °FScattered showers. Overcast.6 mph82%29.98 "Hg6 mi
6:50 AM50 °FScattered showers. Partly sunny.6 mph82%29.98 "Hg6 mi
6:20 AM48 °FLight rain. Passing clouds.6 mph87%29.98 "HgN/A
5:50 AM48 °FLight rain. Overcast.7 mph82%29.98 "Hg6 mi
5:20 AM50 °FPassing clouds.7 mph71%29.98 "HgN/A
10:50 PM
Sun, May 24
48 °FClear.3 mph76%30.04 "Hg10 mi
10:20 PM54 °FSunny.3 mph63%30.04 "Hg10 mi
9:50 PM54 °FSunny.3 mph67%30.04 "Hg10 mi
9:20 PM55 °FSunny.5 mph59%30.01 "Hg10 mi
8:50 PM63 °FSunny.7 mph42%30.01 "Hg10 mi
8:20 PM63 °FSunny.7 mph42%30.01 "Hg10 mi
7:50 PM64 °FPassing clouds.6 mph43%30.01 "HgN/A
7:20 PM66 °FPassing clouds.5 mph37%30.01 "HgN/A
6:50 PM66 °FSunny.7 mph32%30.04 "Hg10 mi
6:20 PM66 °FPassing clouds.7 mph37%30.04 "HgN/A
5:50 PM66 °FPassing clouds.6 mph43%30.04 "HgN/A
5:20 PM66 °FPassing clouds.7 mph40%30.04 "HgN/A
4:50 PM66 °FPassing clouds.8 mph40%30.04 "HgN/A
4:20 PM66 °FPassing clouds.8 mph43%30.07 "HgN/A
Weather by CustomWeather, © 2015

See weather overviewHow to use our weather pages